This is the latest recevied weather packets stored in our database for station/object K0FJ-1. If no packets are shown the sender has not sent any weather packets the latest 1 day(s).
| Time | Temp. | Humidity | Pressure | Rain* | Wind** | Luminosity | Snow |
|---|---|---|---|---|---|---|---|
| 1777991103 | 6.11° C | 89% | 1015.2 hPa | 0.25 mm | 0.45 m/s, 7° | - | - |
| 1777990805 | 6.11° C | 89% | 1015.3 hPa | 0.25 mm | 0 m/s | - | - |
| 1777990503 | 6.11° C | 89% | 1015.3 hPa | 0.25 mm | 0.45 m/s, 6° | - | - |
| 1777990203 | 6.11° C | 88% | 1015.2 hPa | 0 mm | 0.89 m/s, 5° | - | - |
| 1777989903 | 6.11° C | 88% | 1015.2 hPa | 0 mm | 0.89 m/s, 6° | - | - |
| 1777989603 | 6.11° C | 88% | 1015.1 hPa | 0 mm | 0.89 m/s, 16° | - | - |
| 1777989303 | 6.11° C | 87% | 1015.1 hPa | 0 mm | 0.89 m/s, 22° | - | - |
| 1777989003 | 6.67° C | 86% | 1015 hPa | 0 mm | 0.89 m/s, 10° | - | - |
| 1777988703 | 6.67° C | 86% | 1014.9 hPa | 0 mm | 0.89 m/s, 358° | - | - |
| 1777988405 | 6.67° C | 85% | 1015 hPa | 0 mm | 0.45 m/s, 352° | - | - |
| 1777988103 | 6.67° C | 84% | 1014.9 hPa | 0 mm | 0.45 m/s, 354° | - | - |
| 1777987803 | 6.67° C | 83% | 1014.9 hPa | 0 mm | 0.45 m/s, 358° | - | - |
| 1777987505 | 6.67° C | 82% | 1014.7 hPa | 0 mm | 0.45 m/s, 360° | - | - |
| 1777987203 | 6.67° C | 81% | 1014.6 hPa | 0 mm | 0.45 m/s, 4° | - | - |
| 1777986903 | 6.67° C | 81% | 1014.4 hPa | 0 mm | 0.45 m/s, 10° | - | - |
| 1777986603 | 6.67° C | 80% | 1014.4 hPa | 0 mm | 0.45 m/s, 29° | - | - |
| 1777986303 | 6.67° C | 80% | 1014.2 hPa | 0 mm | 0.45 m/s, 50° | - | - |
| 1777986003 | 6.67° C | 80% | 1014.2 hPa | 0.25 mm | 0 m/s | - | - |
| 1777985703 | 6.67° C | 81% | 1014.1 hPa | 0.25 mm | 0.45 m/s, 44° | - | - |
| 1777985403 | 6.11° C | 82% | 1014 hPa | 0.25 mm | 0.45 m/s, 26° | - | - |
| 1777985103 | 6.11° C | 85% | 1013.8 hPa | 0.25 mm | 0.89 m/s, 11° | - | - |
| 1777984803 | 6.11° C | 86% | 1013.7 hPa | 0.25 mm | 0.89 m/s, 8° | - | - |
| 1777984504 | 6.11° C | 88% | 1013.7 hPa | 0.25 mm | 0.89 m/s, 356° | - | - |
| 1777984203 | 6.11° C | 89% | 1013.7 hPa | 0.25 mm | 0.45 m/s, 344° | - | - |
| 1777983903 | 6.11° C | 89% | 1013.6 hPa | 0.25 mm | 0.45 m/s, 344° | - | - |
* Rain latest hour (hover to see other rain measurements)
** Current wind speed in m/s (hover to see current wind gust speed)